sat.trackr.live / text

‹ back to catalog

HULIANWANG DIGUI-123

NORAD 67063 · 2025-295E

PAYLOAD ACTIVE UNKNOWN

§ Identity

Operator
Country
PRC
Launch date
2025-12-11
Launch site
WSC
Launch vehicle
Mass (kg)
RCS (m²)

External: N2YO · Heavens-Above · Gunter

§ Orbital elements

Epoch: 2026-09-20T16:13:48.529632Z

Period
108.33 min
Inclination
50.0047°
Eccentricity
0.0000688
Mean motion
13.29325574 rev/d
Perigee alt
1,148.8 km
Apogee alt
1,149.8 km
Semi-major
7,527.4 km
B*
3.5039e-5
RAAN
43.0137°
Arg perigee
88.7092°
Mean anomaly
271.3859°
Rev number
3,820

§ Raw data

HULIANWANG DIGUI-1231 67063U 25295E   26263.67625613 -.00000108  00000+0  35039-4 0  99932 67063  50.0047  43.0137 0000688  88.7092 271.3859 13.29325574 38203

JSON: /api/v1/satellites/67063 · /tle

For live sub-satellite position, see the globe view (requires WebGL).

§ Visibility from observer

Set your observer location to see the next 7 days of passes ≥ 10°. The values pass through the URL so the page stays shareable.

No JS? Fill the form by hand. The geolocation button needs JavaScript.